ONEWEB-0693, 61601

Orbit data source: Space-Track

ONEWEB-0693, 61601 is a payload satellite owned by Eut. One Web (UK) in LEO that was launched on Sun, 20 Oct 2024 UTC via an FALCON 9 launch vehicle from the Air Force Western Test Range (AFWTR). Payload-class satellites include a variety of spacecraft equipped with specific instruments for various scientific and technological missions. These include communications satellites like Starlink; space stations such as the ISS; scientific satellites like the Hubble; Earth observation satellites from companies like Planet Labs, Umbra, and HawkEye 360; GPS; miniature CubeSats for education and research; and military/defense satellites.

Loading next visibility...
Identifier
61601, 2024-188H
Orbit
LEO
Country
Flag of UKUK
Related business
Manufacturer
One Web
Mission
Operational Commercial Communications
Bus & Motor
ARROW, Unknown motor
Mass
148 kg wet, ~140 kg dry
Launch date (UTC)
2024-10-20 (1 year ago)
Launch vehicle
FALCON 9
Launch site
Air Force Western Test Range (AFWTR)
Object type
Payload
Rocket body
Debris
Shape & HBR
Trap Box + 2 Pan, 6.7 m
Radar Cross Section
3.464 m², Medium (>0.1 m² and < 1m²)

Expand to show TLE details & history
Last TLE update: 22 hours ago

TLE from 22 hours ago
0 ONEWEB-0693
1 61601U 24188H   25295.36325358  .00000018  00000-0  12874-4 0  9990
2 61601  87.9101  53.2154 0001291 128.8661 231.2586 13.17648429 54569
Epoch: 2025-10-22T08:43Z
TLE epoch observation values (Epoch: 2025-10-22T08:43:05.109Z)
Latitude
Longitude
-108.59382°
Altitude
1,197.226 km
Speed
7.255 km/s
True Right ascension
03h 32m 51s
True Declination
0° 00' 00"
Sunlit
Object was in full shadow at epoch
Visualization orbit readout
Latitude
Unknown
Longitude
Unknown
Altitude
Unknown
Speed
Unknown
Apparent Right ascension
Unknown
Apparent Declination
Unknown
Sunlit
N/A
Visualization observer readout
Local Sidereal Time
02:19:26
Azimuth
Unknown
Elevation
Unknown
Doppler factor
Unknown
Orbital elements
Apogee altitude
1,191.801 km
Perigee altitude
1,189.847 km
Semi-major axis
7,568.961 km
Eccentricity
0.00013
Inclination
87.9101°
RAAN
53.2154°
Arg. of periapsis
128.8661°
True anomaly
231.24706°
Mean anomaly
231.2586°
Eccentric anomaly
231.25283°
Mean motion
3.29601 °/min
Orbital period
109.22 mins
BSTAR
0.000012874
Loading maneuver chart data...
Computing Atmospheric mass density...
Loading historical data...
Loading historical data...
Loading historical data...
Loading historical data...
Loading historical data...
Loading historical data...
Loading historical data...

Documentation

Showing up to 5 results
|